STARLINK-1259 (45403 NORAD) Tracking and Keplerian Element Data

This shows tracking and keplerian element data for the satellite.

Feedback or suggestion? Click here.




ElementValue
Catalog45403
NameSTARLINK-1259
Epoch Orbit1102
Epoch Day145.91667824
Epoch Year2020
RAAN284.2492
Inclination52.9993
Eccentricity0.0001627
Argument of Perigee49.0484
Mean Anonmoly113.8138
Mean Motion15.62769231
Decay Rate0.00020013
L11 45403U 20019AV 20145.91667824 .00020013 00000-0 22371-3 0 9997
L22 45403 52.9993 284.2492 0001627 49.0484 113.8138 15.62769231 11022

Live tracking and technical data element details for STARLINK-1259 (NORAD 45403). STARLINK-1259 can be tracked NOW for your location showing map with azimuth and elevation plus other details from your city location.

Track the satellite on the map from your city or location and see movement details for azimuth, elevation, latitude, longitude, range, height, and movement on the map or in text.







IsCatalogInMostPopularTable: catalog: 45403, numindb: 19
Update: records affected: 1



GetName: 45403 STARLINK-1259

Hit Count: updated at: Tue, 26 May 2020 02:50:07 GMT